TimeEST,TemperatureF,Dew PointF,Humidity,Sea Level PressureIn,VisibilityMPH,Wind Direction,Wind SpeedMPH,Gust SpeedMPH,PrecipitationIn,Events,Conditions,WindDirDegrees,DateUTC
12:51 AM,39.0,26.1,60,30.45,10.0,North,10.4,-,N/A,,Partly Cloudy,10,2012-11-17 05:51:00
1:51 AM,39.2,26.6,61,30.46,10.0,North,15.0,-,N/A,,Partly Cloudy,360,2012-11-17 06:51:00
2:51 AM,37.9,26.1,62,30.47,10.0,North,9.2,-,N/A,,Clear,10,2012-11-17 07:51:00
3:51 AM,36.0,26.1,67,30.48,10.0,North,10.4,-,N/A,,Clear,360,2012-11-17 08:51:00
4:51 AM,36.0,26.1,67,30.51,10.0,NNE,4.6,-,N/A,,Partly Cloudy,20,2012-11-17 09:51:00
5:51 AM,33.1,26.1,75,30.53,10.0,NNE,6.9,-,N/A,,Clear,20,2012-11-17 10:51:00
6:51 AM,34.0,27.0,75,30.55,10.0,NNE,6.9,-,N/A,,Clear,20,2012-11-17 11:51:00
7:51 AM,39.0,28.9,67,30.58,10.0,NNE,11.5,-,N/A,,Clear,20,2012-11-17 12:51:00
8:51 AM,43.0,30.0,60,30.60,10.0,North,13.8,-,N/A,,Clear,10,2012-11-17 13:51:00
9:51 AM,46.0,30.9,56,30.61,10.0,NNE,13.8,-,N/A,,Clear,30,2012-11-17 14:51:00
10:51 AM,48.2,30.2,50,30.61,10.0,NNE,13.8,-,N/A,,Clear,20,2012-11-17 15:51:00
11:51 AM,50.0,30.9,48,30.60,10.0,NE,8.1,-,N/A,,Clear,40,2012-11-17 16:51:00
12:51 PM,52.0,30.9,45,30.59,10.0,NE,4.6,-,N/A,,Clear,50,2012-11-17 17:51:00
1:51 PM,52.0,30.9,45,30.58,10.0,NE,9.2,-,N/A,,Clear,40,2012-11-17 18:51:00
2:51 PM,53.1,30.9,43,30.57,10.0,NNE,5.8,-,N/A,,Clear,30,2012-11-17 19:51:00
3:51 PM,51.1,30.0,44,30.58,10.0,NNE,6.9,-,N/A,,Clear,20,2012-11-17 20:51:00
4:51 PM,50.0,30.9,48,30.60,10.0,NE,4.6,-,N/A,,Partly Cloudy,40,2012-11-17 21:51:00
6:51 PM,46.9,35.1,63,30.61,10.0,Calm,Calm,-,N/A,,Clear,0,2012-11-17 23:51:00
7:51 PM,46.0,30.9,56,30.61,10.0,NNE,4.6,-,N/A,,Clear,20,2012-11-18 00:51:00
8:51 PM,42.1,30.2,63,30.62,10.0,NNE,11.5,-,N/A,,Clear,20,2012-11-18 01:51:00
9:51 PM,39.9,30.9,70,30.62,10.0,NNE,8.1,-,N/A,,Clear,30,2012-11-18 02:51:00
10:51 PM,37.9,30.0,73,30.63,10.0,North,5.8,-,N/A,,Clear,10,2012-11-18 03:51:00
11:51 PM,39.0,30.9,73,30.63,10.0,North,8.1,-,N/A,,Clear,10,2012-11-18 04:51:00